Location: Gleizolles
(44.4833°N, 6.7667°E)
Time: 00:37:42
(UTC+00:00)

Vanguard 2 Rocket - Pass Details

Date: 23 June 2024
Orbit: 555 x 3302 km, 32.9° (Epoch: 24 July)

Event Time Altitude Azimuth Distance (km) Brightness Sun altitude
Rises 03:45:44 0° 255° (WSW) 7,146 10.8 -1.3°
Reaches altitude 10° 03:50:32 10° 251° (WSW) 6,226 10.5 -0.6°
Maximum altitude 04:09:53 57° 181° (S) 3,396 9.7 2.3°
Drops below altitude 10° 04:24:27 10° 108° (ESE) 4,830 11.3 4.6°
Sets 04:27:38 0° 105° (ESE) 5,522 11.7 5.1°
